Tracking 28794 objects as of 22-Apr-2024
HD Live streaming from Space Station
objects crossing your sky now

CZ-4B DEB

Track CZ-4B DEB now!
10-day predictions


NORAD ID: 46480
Int'l Code: 2020-067C
Perigee: 574.1 km
Apogee: 617.1 km
Inclination: 97.9 °
Period: 96.4 minutes
Semi major axis: 6966 km
RCS: Unknown
Launch date: September 27, 2020
Source: People's Republic of China (PRC)
Launch site: Taiyaun Space Center, China (TSC)

Note: This is SATELLITE DEBRIS
Your satellite tracking list
Your tracking list is empty




NASA's NSSDC Master Catalog

Two Line Element Set (TLE):
1 46480U 20067C   24112.78648776  .00028262  00000-0  26882-2 0  9998
2 46480  97.8840 201.2035 0030832  90.9086 269.5666 14.93031238193200
Source of the keplerian elements: AFSPC